Regional Weather Roundup
Issued by NWS

Home | Current Version | Previous Version | Text Only | Print | Product List | Glossary On
Versions: 1 2 3 4 5 6 7 8 9 10 11 12 13 14 15 16 17 18 19 20 21 22 23 24 25 26 27 28 29 30 31 32 33 34 35 36 37 38 39 40 41 42 43 44 45 46 47 48 49 50
000
ASUS43 KDTX 020010
RWRMI
MICHIGAN HOURLY REGIONAL WEATHER ROUNDUP
NATIONAL WEATHER SERVICE DETROIT/PONTIAC MI
700 PM EST SUN MAR 01 2015

NOTE: "FAIR" INDICATES FEW OR NO CLOUDS BELOW 12,000 FEET WITH NO
SIGNIFICANT WEATHER AND/OR OBSTRUCTION TO VISIBILITY.

MIZ047>049-052>055-059>063-066>070-074>076-081>083-020100-
SOUTHEAST LOWER MICHIGAN

CITY           SKY/WX    TMP DP  RH WIND       PRES   REMARKS
ADRIAN         PTCLDY    20  16  84 W7        30.23S
6HR MIN TEMP:  20; 6HR MAX TEMP:  24; 6HR PCP: TRACE;

ALMA           CLOUDY    24  18  77 SW9       30.20R
ANN ARBOR      MOCLDY    22  16  78 SW3       30.22R
BAD AXE        CLOUDY    22  15  74 SW8       30.17S
6HR MIN TEMP:  21; 6HR MAX TEMP:  24;

DETROIT CITY   PTCLDY    25  16  68 SW8       30.21S
6HR MIN TEMP:  24; 6HR MAX TEMP:  27; 6HR PCP: TRACE;

DETROIT        MOCLDY    24  17  74 SW8       30.23S
6HR MIN TEMP:  23; 6HR MAX TEMP:  25; 6HR PCP:  0.02;

FLINT          CLOUDY    25  14  63 W7        30.20S
6HR MIN TEMP:  23; 6HR MAX TEMP:  26;

GROSSE ILE     CLOUDY    23  18  80 SW6       30.21S
HILLSDALE      CLOUDY    22  17  80 W6        30.20F
6HR MIN TEMP:  22; 6HR MAX TEMP:  24;

HOWELL         MOCLDY    21  13  70 CALM      30.19F

CITY           SKY/WX    TMP DP  RH WIND       PRES   REMARKS
JACKSON        MOCLDY    21  14  74 SW7       30.21S
6HR MIN TEMP:  21; 6HR MAX TEMP:  24; 6HR PCP: TRACE;

LAMBERTVILLE   PTCLDY    23  18  80 SW5       30.24S
LANSING        CLOUDY    24  14  65 W10       30.21R
6HR MIN TEMP:  21; 6HR MAX TEMP:  26;

LAPEER         NOT AVBL
MASON          CLOUDY    24  15  70 SW5       30.21R
6HR MIN TEMP:  22; 6HR MAX TEMP:  26;

MONROE         PTCLDY    19  18  93 SW6       30.22S
MT. CLEMENS    PTCLDY    25  17  72 SW5       30.18S
6HR MIN TEMP:  21; 6HR MAX TEMP:  27; 6HR PCP: TRACE;

PONTIAC        PTCLDY    22  12  65 W6        30.18S
6HR MIN TEMP:  21; 6HR MAX TEMP:  25;

PORT HOPE        N/A     22  12  65 SW6       30.15F
6HR MIN TEMP:  20; 6HR MAX TEMP:  24;

PORT HURON     CLEAR     21  16  79 SW3       30.20S
TRI CITIES     CLOUDY    25  17  72 SW10      30.19S
6HR MIN TEMP:  22; 6HR MAX TEMP:  26;

YPSILANTI      PTCLDY    23  16  74 SW9       30.22R
6HR MIN TEMP:  23; 6HR MAX TEMP:  27; 6HR PCP: TRACE;

$$
MIZ043>046-050>051-056>058-064>065-071>073-077>080-020100-
SOUTHWEST LOWER MICHIGAN

CITY           SKY/WX    TMP DP  RH WIND       PRES   REMARKS
BATTLE CREEK   CLOUDY    25  16  68 SW9       30.22R
6HR MIN TEMP:  22; 6HR MAX TEMP:  26; 6HR PCP: TRACE;

BENTON HARBOR    N/A    N/A N/A N/A MISG      30.25F
BIG RAPIDS     CLOUDY    23  18  81 W10       30.16S
6HR MIN TEMP:  22; 6HR MAX TEMP:  24;

COLDWATER      MOCLDY    19  14  80 SW3       30.22S
6HR MIN TEMP:  19; 6HR MAX TEMP:  24;

HOLLAND        CLOUDY    24  18  77 SW10      30.24S
6HR MIN TEMP:  24; 6HR MAX TEMP:  25; 6HR PCP: TRACE;

GRAND RAPIDS   CLOUDY    23  18  81 SW14      30.22R HAZE
6HR MIN TEMP:  22; 6HR MAX TEMP:  25;

KALAMAZOO      CLOUDY    24  16  71 SW10      30.23S
6HR MIN TEMP:  22; 6HR MAX TEMP:  26;

MARSHALL       CLOUDY    22  15  76 SW6       30.22R
MUSKEGON       CLOUDY    25  18  74 SW13      30.22S
6HR MIN TEMP:  22; 6HR MAX TEMP:  25; 6HR PCP: TRACE;

$$
MIZ016>042-020100-
NORTHERN LOWER MICHIGAN

CITY           SKY/WX    TMP DP  RH WIND       PRES   REMARKS
ALPENA         CLOUDY    26  12  55 SW6       30.10F
6HR MIN TEMP:  26; 6HR MAX TEMP:  29;

BEAVER ISLAND  FLURRIES  23  18  81 SW12G18   30.08S
6HR MIN TEMP:  22; 6HR MAX TEMP:  24;

BELLAIRE       MOCLDY    23  15  69 SW5       30.13F
6HR MIN TEMP:  23; 6HR MAX TEMP:  27;

CADILLAC       CLOUDY    20  15  79 SW12      30.10R
CHARLEVOIX     MOCLDY    22  15  74 SW7       30.14S
FRANKFORT      CLOUDY    25  20  82 SW9       30.14F
GAYLORD        CLOUDY    21  13  71 SW7       30.06F
6HR MIN TEMP:  19; 6HR MAX TEMP:  24;

GRAYLING       CLOUDY    23  12  64 W6        30.10S
HARBOR SPRINGS CLOUDY    21  14  73 SW7       30.10F
HOUGHTON LAKE  CLOUDY    21  14  74 SW7       30.11F
6HR MIN TEMP:  21; 6HR MAX TEMP:  24;

MANISTEE       CLOUDY    23  16  74 SW8       30.17S
OSCODA         PTCLDY    24  14  66 S8        30.13F
PELLSTON       MOCLDY    22  13  68 SW10      30.09F
6HR MIN TEMP:  22; 6HR MAX TEMP:  24;

TRAVERSE CITY  CLOUDY    24  15  68 SW10G17   30.12F
6HR MIN TEMP:  24; 6HR MAX TEMP:  26;

$$
MIZ007>008-015-020100-
EASTERN UPPER MICHIGAN

CITY           SKY/WX    TMP DP  RH WIND       PRES   REMARKS
KINROSS        CLOUDY    21  18  86 SW6       30.06S
6HR MIN TEMP:  21; 6HR MAX TEMP:  27;

MACKINAC ISLAN CLOUDY    22  15  74 SW14      30.08S
6HR MIN TEMP:  22; 6HR MAX TEMP:  23;

NEWBERRY       LGT SNOW  22  19  88 SW15      30.02F
6HR MIN TEMP:  22; 6HR MAX TEMP:  23;

S. S. MARIE    LGT SNOW  21  14  74 SW9       30.06R
6HR MIN TEMP:  21; 6HR MAX TEMP:  25; 6HR PCP: TRACE;

$$
MIZ004>006-011>014-085-020100-
CENTRAL UPPER MICHIGAN

CITY           SKY/WX    TMP DP  RH WIND       PRES   REMARKS
MANISTIQUE     CLOUDY    25  17  70 SW10G18   30.05S
6HR MIN TEMP:  21; 6HR MAX TEMP:  26;

ESCANABA       CLOUDY    27  10  50 W17G23    30.07R
6HR MIN TEMP:  19; 6HR MAX TEMP:  28;

MENOMINEE      PTCLDY    23  10  58 W7G20     30.11R
6HR MIN TEMP:  23; 6HR MAX TEMP:  27;

SAWYER-GWINN   MOCLDY    21   7  53 W8        30.03R
$$
MIZ001>003-009>011-084-020100-
WESTERN UPPER MICHIGAN

CITY           SKY/WX    TMP DP  RH WIND       PRES   REMARKS
IRON MOUNTAIN  CLOUDY    21   7  54 W6        30.06R
6HR MIN TEMP:  21; 6HR MAX TEMP:  26;

HOUGHTON       MOCLDY    20   7  57 W15       30.01S
6HR MIN TEMP:  19; 6HR MAX TEMP:  21; 6HR PCP: TRACE;

COPPER HARBOR    N/A     20   9  62 VRB7G17   30.02S
6HR MIN TEMP:  20; 6HR MAX TEMP:  24;

IRONWOOD       PTCLDY    21   3  45 W14       30.06R
6HR MIN TEMP:  19; 6HR MAX TEMP:  23;

$$

ABBREVIATIONS USED IN REMARKS
   TC - TEMPERATURE IN CELSIUS
  WCI - WIND CHILL INDEX
   HX - HEAT INDEX
  VSB - VISIBILITY




USA.gov is the U.S. government's official web portal to all federal, state and local government web resources and services.